Hourly Weather Roundup
Issued by NWS Central Illinois

Home | Current Version | Previous Version | Text Only | Print | Product List | Glossary On
Versions: 1 2 3 4 5 6 7 8 9 10 11 12 13 14 15 16 17 18 19 20 21 22 23 24 25 26 27 28 29 30 31 32 33 34 35 36 37 38 39 40 41 42 43 44 45 46 47 48 49 50
000
NZUS43 KILX 011710
HWRILX

AREA WEATHER ROUNDUP
NATIONAL WEATHER SERVICE, LINCOLN IL
1200 PM CDT SUN MAY 01 2016


CITY           SKY/WX    TMP DP  RH WIND       PRES   REMARKS
BLOOMINGTON    CLOUDY    55  55 100 NE13      29.97S FOG
CHAMPAIGN      CLOUDY    57  55  93 E5        29.96R
DANVILLE       CLOUDY    57  55  94 CALM      29.94R
DECATUR        CLOUDY    61  56  83 E10       29.95F
EFFINGHAM      CLOUDY    65  61  85 NW5       29.96R
FLORA          MOSUNNY   74  63  67 SE3       29.93S
GALESBURG      CLOUDY    50  49  95 NE9       29.98R
JACKSONVILLE   CLOUDY    57  53  88 E5        29.95S
LACON          CLOUDY    51  48  90 NE8       29.98S
LAWRENCEVILLE  SUNNY     74  61  63 VRB3      29.93
LITCHFIELD     CLOUDY    60  56  87 CALM      29.95S
$$


CITY           SKY/WX    TMP DP  RH WIND       PRES   REMARKS
LINCOLN        CLOUDY    57  55  91 NE6       29.96F FOG
MACOMB         CLOUDY    54  52  94 E8        29.99R
MATTOON        CLOUDY    62  56  80 NE9       29.94F
MT CARMEL AP   NOT AVBL
OLNEY-NOBLE AP PTSUNNY   70  61  73 CALM      29.94S
PARIS          CLOUDY    64  59  83 CALM      29.97R
PEORIA         CLOUDY    54  50  86 NE12      29.96F
PONTIAC        CLOUDY    52  51  96 NE12      29.99R
RANTOUL        CLOUDY    57  55  93 E7        29.96S FOG
ROBINSON       SUNNY     70  62  74 N5        29.93F
SPRINGFIELD    CLOUDY    60  55  83 NE9       29.95F
TAYLORVILLE    CLOUDY    59  57  94 N7        29.95S FOG
$$

...REGIONAL REPORTS...


CITY           SKY/WX    TMP DP  RH WIND       PRES   REMARKS
CHICAGO O`HARE CLOUDY    45  44  97 NE14      29.99F FOG
KANKAKEE       CLOUDY    53  49  86 NE9       29.98S
MOLINE         CLOUDY    50  45  83 E12       29.99R
MOUNT STERLING CLOUDY    53  51  93 CALM      29.96R
MOUNT VERNON   MOSUNNY   72  61  68 SW8       29.94S
PITTSFIELD     CLOUDY    55  53  95 CALM      29.97S
QUINCY         CLOUDY    53  51  93 NW6       29.97R FOG
ROCKFORD       CLOUDY    50  44  80 NE15      30.03S
$$


CITY           SKY/WX    TMP DP  RH WIND       PRES   REMARKS
BURLINGTON     CLOUDY    51  49  92 NE6       29.97R
CEDAR RAPIDS   CLOUDY    47  46  97 NE12      30.00S FOG
DES MOINES     DRIZZLE   46  43  89 NE8       30.04R FOG
KIRKSVILLE     CLOUDY    53  49  86 N7        29.97S
OTTUMWA        CLOUDY    47  46  97 NE9       30.00R FOG
ST LOUIS       CLOUDY    68  58  70 VRB5      29.95S
$$


CITY           SKY/WX    TMP DP  RH WIND       PRES   REMARKS
TERRE HAUTE    CLOUDY    69  57  65 N7        29.94R
EVANSVILLE     PTSUNNY   74  62  66 S12       29.93R
INDIANAPOLIS   MOSUNNY   71  56  58 CALM      29.92S
LAFAYETTE      CLOUDY    59  55  87 NE3       29.95R
MADISON        CLOUDY    50  44  80 NE12      30.04F
MILWAUKEE      CLOUDY    47  39  74 NE14G23   30.05R
$$






USA.gov is the U.S. government's official web portal to all federal, state and local government web resources and services.